Culebra, VI

10:27 PM AST on December 04, 2016 (GMT -0400)
King

Weather History for TIST - December, 2012

Change the Weather History Date:

Monday, December 31, 2012

  Actual Average Record
Temperature  
Mean Temperature 77 °F 79 °F  
Max Temperature 82 °F 85 °F 90 °F (1994)
Min Temperature 72 °F 73 °F 65 °F (1972)
Degree Days  
Heating Degree Days 0 0  
Month to date heating degree days 0 0  
Since 1 July heating degree days 0 0  
Cooling Degree Days 12 14  
Month to date cooling degree days 441 451  
Year to date cooling degree days 5836 6045  
Growing Degree Days 27 (Base 50)    
Moisture  
Dew Point 71 °F    
Average Humidity 87    
Maximum Humidity 100    
Minimum Humidity 74    
Precipitation  
Precipitation 0.14 in 0.08 in 0.64 in (1990)
Month to date precipitation 2.34 2.96  
Year to date precipitation 35.87 39.34  
Sea Level Pressure  
Sea Level Pressure 30.05 in    
Wind  
Wind Speed 9 mph (ENE)    
Max Wind Speed 18 mph    
Max Gust Speed 24 mph    
Visibility 10 miles    
Events Rain    
T = Trace of Precipitation, MM = Missing Value Source: NWS Daily Summary

Daily Weather History Graph

Daily Weather History Graph

Search for Another Location

Airport or City:

Trip Planner

Search our weather history database for the weather conditions in past years. The results will help you decide how hot, cold, wet, or windy it might be!

Date:

Astronomy

Dec. 31, 2012 Rise Set
Actual Time 6:51 AM AST 5:54 PM AST
Civil Twilight 6:27 AM AST 6:18 PM AST
Nautical Twilight 6:00 AM AST 6:45 PM AST
Astronomical Twilight 5:33 AM AST 7:12 PM AST
Moon 8:51 PM AST (12/31) 8:56 AM AST (12/31)
Length of Visible Light 11h 50m
Length of Day
11h 03m
Waning Gibbous, 90% of the Moon is Illuminated
Dec 31
Waning Gibbous
Jan 4
Last Quarter
Jan 11
New
Jan 18
First Quarter
Jan 27
Full

Hourly Weather History & Observations

Time (AST) Temp. Heat Index Dew Point Humidity Pressure Visibility Wind Dir Wind Speed Gust Speed Precip Events Conditions
12:53 AM 75.9 °F - 71.1 °F 85% 30.05 in 10.0 mi SE 4.6 mph - N/A   Clear
1:53 AM 75.0 °F - 71.1 °F 87% 30.04 in 10.0 mi NE 4.6 mph - N/A   Clear
2:53 AM 75.0 °F - 71.1 °F 87% 30.03 in 9.0 mi NE 8.1 mph - 0.01 in Rain Light Rain
3:53 AM 73.9 °F - 71.1 °F 91% 30.02 in 10.0 mi ENE 6.9 mph - 0.00 in   Clear
4:53 AM 75.0 °F - 71.1 °F 87% 30.03 in 10.0 mi NE 8.1 mph - N/A   Clear
5:53 AM 75.0 °F - 70.0 °F 84% 30.03 in 10.0 mi East 6.9 mph - N/A   Mostly Cloudy
6:53 AM 75.0 °F - 71.1 °F 87% 30.04 in 10.0 mi NE 4.6 mph - N/A   Mostly Cloudy
7:53 AM 75.0 °F - 70.0 °F 84% 30.07 in 10.0 mi ENE 12.7 mph - N/A   Scattered Clouds
8:53 AM 72.0 °F - 71.1 °F 97% 30.10 in 4.0 mi ENE 8.1 mph - 0.01 in   Overcast
9:53 AM 75.0 °F - 71.1 °F 87% 30.10 in 10.0 mi NE 13.8 mph - N/A   Overcast
10:53 AM 75.9 °F - 73.0 °F 91% 30.10 in 10.0 mi NE 10.4 mph - 0.02 in   Overcast
11:38 AM 78.8 °F - 73.4 °F 83% 30.08 in 10.0 mi Variable 5.8 mph - N/A   Scattered Clouds
11:53 AM 78.1 °F - 73.0 °F 84% 30.08 in 10.0 mi NNE 6.9 mph - N/A   Mostly Cloudy
12:53 PM 79.0 °F - 73.0 °F 82% 30.06 in 10.0 mi NE 6.9 mph - 0.01 in   Mostly Cloudy
1:53 PM 79.0 °F - 70.0 °F 74% 30.04 in 10.0 mi NE 8.1 mph - N/A   Partly Cloudy
2:53 PM 80.1 °F 83.6 °F 71.1 °F 74% 30.02 in 10.0 mi NE 10.4 mph 17.3 mph N/A   Partly Cloudy
3:53 PM 80.1 °F 83.6 °F 71.1 °F 74% 30.01 in 10.0 mi ENE 13.8 mph 20.7 mph N/A   Scattered Clouds
4:53 PM 78.1 °F - 71.1 °F 79% 30.01 in 10.0 mi NE 12.7 mph - N/A   Mostly Cloudy
5:53 PM 75.9 °F - 71.1 °F 85% 30.02 in 10.0 mi ENE 9.2 mph - N/A   Scattered Clouds
6:53 PM 75.9 °F - 72.0 °F 87% 30.03 in 10.0 mi ENE 13.8 mph 21.9 mph N/A   Overcast
7:53 PM 75.9 °F - 71.1 °F 85% 30.04 in 10.0 mi ENE 12.7 mph 18.4 mph N/A   Mostly Cloudy
8:53 PM 75.9 °F - 70.0 °F 82% 30.06 in 10.0 mi East 10.4 mph 17.3 mph N/A   Clear
9:53 PM 75.9 °F - 69.1 °F 79% 30.06 in 10.0 mi East 12.7 mph 17.3 mph N/A   Partly Cloudy
10:53 PM 77.0 °F - 70.0 °F 79% 30.06 in 10.0 mi East 9.2 mph 20.7 mph N/A   Mostly Cloudy
11:53 PM 73.9 °F - 71.1 °F 91% 30.05 in 10.0 mi ENE 10.4 mph - 0.09 in   Partly Cloudy